User: anonymous   Login
Location: Unspecified
(0.0000°N, 0.0000°E)
Time: 03:10:26
(UTC+01:00)
Language:

Cosmos 1536 - Orbit

View from above orbital plane
View from above orbital plane
View from above satellite
View from above satellite

Ground track
Ground track

The orbit data is extracted from the following two-line orbital elements,

1 14699U 84013A   17017.79678756 +.00000580 +00000-0 +38891-4 0  9992
2 14699 082.5265 115.1259 0012070 201.5220 158.5501 15.04943748769311
Epoch (UTC): 17 January 2017 19:07:22
Eccentricity: 0.0012070
inclination: 82.5265°
perigee height: 543 km
apogee height: 560 km
right ascension of ascending node: 115.1259°
argument of perigee: 201.5220°
revolutions per day: 15.04943748
mean anomaly at epoch: 158.5501°
orbit number at epoch: 76931

The dashed part of the orbit path shows where the satellite is in the earth's shadow,  

DLR